1494198000.04,1085,15.5,72826.8,-3.37,-12.53,-11.07,0,*69
1494198001.32,1086,15.5,72824.8,-3.37,-12.53,-11.07,0,*6A
1494198002.58,1087,15.5,72826.5,-3.37,-12.53,-11.15,0,*68
1494198003.81,1088,15.5,72824.8,-3.37,-12.39,-11.11,0,*6F
1494198005.06,1089,15.56,72824.8,-3.37,-12.35,-11.15,0,*66
1494198006.29,1090,15.5,72822.0,-3.37,-12.39,-11.23,0,*67
1494198007.51,1091,15.5,72824.5,-3.39,-12.39,-11.29,0,*62
1494198008.77,1092,15.56,72824.0,-3.39,-12.35,-11.29,0,*6D
1494198010.02,1093,15.56,72824.5,-3.39,-12.35,-11.37,0,*63
1494198011.22,1094,15.5,72826.0,-3.39,-12.39,-11.41,0,*69
1494198012.47,1095,15.5,72824.5,-3.39,-12.53,-11.51,0,*65
1494198013.75,1096,15.56,72828.0,-3.37,-12.53,-11.51,0,*68
1494198015.0,1097,15.56,72824.8,-3.37,-12.47,-11.51,0,*6C
1494198016.22,1098,15.5,72826.8,-3.39,-12.47,-11.51,0,*6D
1494198017.45,1099,15.56,72828.5,-3.39,-12.47,-11.51,0,*6C
1494198018.68,1100,15.5,72826.0,-3.39,-12.53,-11.41,0,*69
1494198019.93,1101,15.56,72826.5,-3.39,-12.53,-11.37,0,*69
1494198021.19,1102,15.56,72830.0,-3.37,-12.65,-11.41,0,*60
1494198022.41,1103,15.56,72824.3,-3.39,-12.79,-11.41,0,*62
1494198023.66,1104,15.56,72828.0,-3.39,-12.83,-11.37,0,*61
1494198024.89,1105,15.56,72830.5,-3.39,-12.93,-11.29,0,*6E
1494198026.14,1106,15.56,72824.8,-3.37,-12.93,-11.29,0,*63
1494198027.37,1107,15.56,72828.5,-3.39,-12.83,-11.15,0,*62
1494198028.59,1108,15.56,72830.3,-3.43,-12.97,-11.15,0,*65
1494198029.84,1109,15.56,72826.5,-3.43,-12.83,-11.01,0,*64
1494198031.09,1110,15.56,72830.5,-3.43,-12.83,-10.89,0,*6D
1494198032.36,1111,15.56,72830.3,-3.43,-12.83,-10.71,0,*6B
1494198033.63,1112,15.56,72828.5,-3.43,-12.83,-10.71,0,*68
1494198034.86,1113,15.5,72824.8,-3.39,-12.75,-10.53,0,*6D
1494198036.08,1114,15.56,72830.5,-3.39,-12.61,-10.45,0,*68
1494198037.33,1115,15.56,72830.5,-3.43,-12.65,-10.49,0,*6C
1494198038.56,1116,15.5,72828.3,-3.45,-12.53,-10.49,0,*6C
1494198039.79,1117,15.56,72828.8,-3.43,-12.39,-10.49,0,*67
1494198040.99,1118,15.56,72830.3,-3.45,-12.29,-10.49,0,*6F
1494198042.25,1119,15.5,72824.5,-3.43,-12.11,-10.31,0,*6C
1494198043.47,1120,15.56,72826.5,-3.45,-12.15,-10.53,0,*60
1494198044.75,1121,15.5,72826.3,-3.43,-12.15,-10.67,0,*60
1494198045.99,1122,15.56,72828.8,-3.45,-12.21,-10.63,0,*66
1494198047.24,1123,15.5,72824.5,-3.45,-12.15,-10.63,0,*60
1494198048.48,1124,15.5,72826.5,-3.45,-12.21,-10.67,0,*64
1494198049.74,1125,15.56,72828.5,-3.47,-12.21,-10.67,0,*67
1494198051.0,1126,15.5,72826.8,-3.47,-12.21,-10.75,0,*67
1494198052.25,1127,15.56,72828.3,-3.47,-12.21,-10.75,0,*66
1494198053.48,1128,15.56,72830.3,-3.45,-12.29,-10.75,0,*63
1494198054.71,1129,15.5,72826.3,-3.45,-12.29,-10.79,0,*6E
1494198055.96,1130,15.56,72830.0,-3.45,-12.35,-10.79,0,*6B
1494198057.19,1131,15.5,72826.0,-3.45,-12.29,-10.75,0,*6B
1494198058.47,1132,15.5,72826.0,-3.47,-12.35,-10.79,0,*6B
1494198059.75,1133,15.56,72826.8,-3.47,-12.35,-10.75,0,*66
1494198061.0,1134,15.5,72828.3,-3.47,-12.29,-10.75,0,*6C
1494198062.25,1135,15.5,72826.5,-3.47,-12.29,-10.79,0,*61
1494198063.51,1136,15.56,72828.8,-3.47,-12.29,-10.75,0,*6E
1494198064.76,1137,15.5,72826.0,-3.47,-12.29,-10.67,0,*6C
1494198066.04,1138,15.56,72830.0,-3.47,-12.35,-10.63,0,*6A
1494198067.27,1139,15.5,72824.8,-3.47,-12.29,-10.53,0,*65
1494198068.5,1140,15.56,72828.8,-3.47,-12.29,-10.49,0,*60
1494198069.75,1141,15.5,72828.3,-3.47,-12.07,-10.35,0,*66
1494198070.95,1142,15.56,72830.3,-3.49,-12.03,-10.09,0,*60
1494198072.17,1143,15.5,72826.3,-3.45,-11.89,-10.05,0,*60
1494198073.42,1144,15.5,72828.0,-3.47,-11.89,-9.93,0,*52
1494198074.66,1145,15.56,72830.0,-3.49,-11.81,-9.83,0,*54
1494198075.9,1146,15.56,72830.8,-3.47,-11.77,-9.71,0,*5D
1494198077.15,1147,15.56,72830.5,-3.49,-11.81,-9.45,0,*5C
1494198078.37,1148,15.5,72828.3,-3.45,-11.59,-9.27,0,*5E
1494198079.61,1149,15.5,72824.5,-3.45,-11.59,-9.11,0,*5A
1494198080.84,1150,15.56,72830.0,-3.47,-11.45,-9.01,0,*5C
1494198082.08,1151,15.56,72828.8,-3.47,-11.37,-8.97,0,*56
1494198083.3,1152,15.56,72828.3,-3.47,-11.23,-8.85,0,*53
1494198084.54,1153,15.56,72828.5,-3.47,-11.33,-8.85,0,*53
1494198085.76,1154,15.56,72830.5,-3.47,-11.23,-8.75,0,*5A
1494198086.99,1155,15.56,72828.0,-3.47,-11.07,-8.59,0,*53
1494198088.2,1156,15.5,72826.8,-3.47,-10.89,-8.55,0,*5B
1494198089.44,1157,15.5,72828.0,-3.47,-10.75,-8.59,0,*55
1494198090.68,1158,15.56,72828.5,-3.47,-10.75,-8.41,0,*53
1494198091.87,1159,15.5,72826.0,-3.45,-10.35,-8.29,0,*5A
1494198093.12,1160,15.5,72828.8,-3.43,-10.19,-8.11,0,*53
1494198094.3,1161,15.5,72826.0,-3.45,-10.05,-8.17,0,*5F
1494198095.51,1162,15.56,72828.8,-3.45,-9.97,-7.77,0,*66
1494198096.74,1163,15.5,72824.5,-3.45,-9.83,-7.65,0,*61
1494198097.95,1164,15.56,72828.3,-3.43,-9.67,-7.49,0,*64
1494198099.22,1165,15.56,72828.3,-3.43,-9.41,-7.31,0,*6E
1494198100.41,1166,15.5,72826.5,-3.45,-9.27,-7.15,0,*6D
1494198101.62,1167,15.56,72830.5,-3.45,-8.97,-7.01,0,*63
1494198102.84,1168,15.56,72830.5,-3.45,-8.71,-7.01,0,*64
1494198104.05,1169,15.5,72826.3,-3.45,-8.59,-7.01,0,*6F
1494198105.28,1170,15.5,72826.5,-3.43,-8.41,-7.05,0,*6C
1494198106.47,1171,15.56,72830.8,-3.45,-8.29,-7.11,0,*60
1494198107.69,1172,15.56,72828.5,-3.45,-8.07,-7.11,0,*6F
1494198108.93,1173,15.56,72828.8,-3.43,-8.03,-7.11,0,*6C
1494198110.17,1174,15.5,72824.5,-3.43,-7.91,-7.11,0,*6F
1494198111.41,1175,15.5,72824.3,-3.39,-7.73,-7.01,0,*6E
1494198112.65,1176,15.56,72828.5,-3.43,-7.87,-7.05,0,*6F
1494198113.91,1177,15.5,72830.5,-3.43,-7.65,-6.97,0,*68
1494198115.15,1178,15.5,72828.8,-3.43,-7.61,-6.85,0,*60
1494198116.37,1179,15.5,72830.5,-3.39,-7.43,-6.77,0,*61
1494198117.61,1180,15.5,72830.3,-3.37,-7.39,-6.51,0,*60
1494198118.81,1181,15.5,72828.8,-3.39,-7.31,-6.39,0,*69
1494198120.03,1182,15.5,72830.3,-3.39,-7.27,-6.47,0,*64
1494198121.24,1183,15.5,72826.8,-3.39,-7.31,-6.39,0,*6B
1494198122.47,1184,15.5,72830.0,-3.39,-7.31,-6.27,0,*63
1494198123.72,1185,15.56,72830.3,-3.37,-7.19,-6.23,0,*62
1494198124.93,1186,15.5,72830.5,-3.39,-7.05,-6.13,0,*61
1494198126.14,1187,15.5,72828.0,-3.39,-7.05,-6.09,0,*6B
1494198127.35,1188,15.5,72830.5,-3.37,-6.89,-6.01,0,*67
1494198128.61,1189,15.5,72824.8,-3.37,-6.77,-5.89,0,*64
1494198129.82,1190,15.56,72832.3,-3.37,-6.73,-5.97,0,*67
1494198131.06,1191,15.5,72832.5,-3.37,-6.63,-5.97,0,*67
1494198132.28,1192,15.5,72830.8,-3.35,-6.47,-5.85,0,*63
1494198133.51,1193,15.5,72828.5,-3.35,-6.43,-5.85,0,*66
1494198134.73,1194,15.5,72828.5,-3.35,-6.35,-5.85,0,*60
1494198135.98,1195,15.56,72832.5,-3.35,-6.23,-5.85,0,*66
1494198137.23,1196,15.5,72830.3,-3.35,-6.23,-5.93,0,*62
1494198138.42,1197,15.5,72830.5,-3.35,-6.31,-6.05,0,*6C
1494198139.64,1198,15.5,72828.8,-3.35,-6.23,-5.97,0,*68
1494198140.86,1199,15.5,72828.8,-3.35,-6.31,-6.19,0,*6F
1494198142.06,1200,15.5,72830.5,-3.35,-6.31,-6.09,0,*6D
1494198143.3,1201,15.5,72830.8,-3.33,-6.31,-6.23,0,*62
1494198144.55,1202,15.5,72830.0,-3.33,-6.23,-6.31,0,*61
1494198145.81,1203,15.5,72830.5,-3.33,-6.23,-6.23,0,*63
1494198147.07,1204,15.5,72828.8,-3.33,-6.23,-6.23,0,*64
1494198148.34,1205,15.5,72828.5,-3.29,-6.27,-6.19,0,*63
1494198149.56,1206,15.5,72830.3,-3.33,-6.43,-6.31,0,*63
1494198150.78,1207,15.5,72830.3,-3.33,-6.47,-6.35,0,*62
1494198152.03,1208,15.56,72830.5,-3.29,-6.51,-6.19,0,*6F
1494198153.28,1209,15.5,72828.5,-3.29,-6.51,-6.19,0,*6E
1494198154.52,1210,15.5,72828.3,-3.29,-6.55,-6.19,0,*62
1494198155.74,1211,15.5,72828.5,-3.29,-6.55,-6.13,0,*69
1494198156.95,1212,15.5,72828.8,-3.29,-6.43,-6.13,0,*6D
1494198158.17,1213,15.5,72830.5,-3.27,-6.43,-5.93,0,*69
1494198159.39,1214,15.5,72828.5,-3.29,-6.51,-6.01,0,*6B
1494198160.63,1215,15.5,72828.8,-3.29,-6.43,-5.93,0,*61
1494198161.84,1216,15.56,72830.3,-3.27,-6.43,-5.93,0,*6C
1494198163.06,1217,15.5,72828.8,-3.27,-6.31,-5.81,0,*6B
1494198164.28,1218,15.56,72832.0,-3.27,-6.31,-5.89,0,*6C
1494198165.5,1219,15.5,72828.8,-3.27,-6.39,-5.89,0,*65
1494198166.71,1220,15.5,72828.0,-3.27,-6.31,-5.81,0,*6F
1494198167.93,1221,15.5,72828.3,-3.27,-6.31,-5.81,0,*6E
1494198169.15,1222,15.5,72830.5,-3.27,-6.39,-5.89,0,*6D
1494198170.41,1223,15.5,72830.3,-3.29,-6.27,-5.77,0,*6C
1494198171.64,1224,15.5,72828.0,-3.27,-6.27,-5.77,0,*65
1494198172.87,1225,15.5,72830.3,-3.27,-6.27,-5.73,0,*60
1494198174.08,1226,15.5,72828.3,-3.27,-6.39,-5.73,0,*6C
1494198175.29,1227,15.5,72826.3,-3.27,-6.39,-5.73,0,*6D
1494198176.5,1228,15.5,72830.8,-3.27,-6.39,-5.73,0,*62
1494198177.72,1229,15.5,72830.5,-3.27,-6.39,-5.61,0,*60
1494198178.91,1230,15.5,72828.0,-3.27,-6.31,-5.47,0,*64
1494198180.12,1231,15.5,72826.8,-3.23,-6.23,-5.39,0,*6B
1494198181.39,1232,15.56,72832.8,-3.25,-6.27,-5.31,0,*62
1494198182.63,1233,15.5,72830.3,-3.23,-6.23,-5.19,0,*6B
1494198183.87,1234,15.5,72830.3,-3.23,-6.27,-5.19,0,*68
1494198185.12,1235,15.5,72828.0,-3.25,-6.13,-5.07,0,*67
1494198186.33,1236,15.5,72828.5,-3.23,-5.97,-4.93,0,*61
1494198187.57,1237,15.5,72826.5,-3.25,-6.01,-4.93,0,*6A
1494198188.82,1238,15.5,72828.5,-3.23,-5.93,-4.85,0,*6C
1494198190.06,1239,15.5,72824.5,-3.23,-5.85,-4.77,0,*67
1494198191.3,1240,15.5,72826.3,-3.23,-5.81,-4.77,0,*6D
1494198192.52,1241,15.5,72828.8,-3.23,-5.69,-4.65,0,*69
1494198193.74,1242,15.5,72828.3,-3.23,-5.65,-4.65,0,*66
1494198194.96,1243,15.56,72830.0,-3.23,-5.65,-4.65,0,*67
1494198196.14,1244,15.5,72826.8,-3.23,-5.43,-4.61,0,*60
1494198197.33,1245,15.5,72828.0,-3.23,-5.39,-4.61,0,*6C
1494198198.55,1246,15.5,72828.5,-3.23,-5.31,-4.53,0,*66
1494198199.77,1247,15.56,72828.5,-3.23,-5.27,-4.53,0,*60
1494198201.02,1248,15.56,72828.3,-3.21,-5.19,-4.53,0,*60
1494198202.26,1249,15.56,72828.3,-3.21,-5.15,-4.49,0,*66
1494198203.47,1250,15.56,72828.5,-3.19,-5.11,-4.45,0,*6D
1494198204.72,1251,15.5,72824.5,-3.21,-5.07,-4.49,0,*6C
1494198205.96,1252,15.5,72828.3,-3.21,-5.03,-4.49,0,*6B
1494198207.15,1253,15.5,72826.0,-3.19,-4.99,-4.37,0,*6A
1494198208.36,1254,15.5,72828.0,-3.19,-4.89,-4.45,0,*69
1494198209.6,1255,15.5,72826.0,-3.17,-4.89,-4.45,0,*66
1494198210.81,1256,15.56,72828.3,-3.19,-4.81,-4.33,0,*62
1494198212.02,1257,15.56,72830.8,-3.19,-4.73,-4.37,0,*6A
1494198213.23,1258,15.56,72830.8,-3.19,-4.77,-4.49,0,*68
1494198214.44,1259,15.56,72828.5,-3.19,-4.73,-4.49,0,*6D
1494198215.66,1260,15.5,72828.5,-3.19,-4.73,-4.57,0,*68
1494198216.9,1261,15.5,72828.5,-3.17,-4.73,-4.49,0,*68
1494198218.14,1262,15.5,72826.0,-3.17,-4.73,-4.57,0,*64
1494198219.4,1263,15.56,72830.5,-3.17,-4.73,-4.69,0,*68
1494198220.66,1264,15.5,72828.0,-3.17,-4.73,-4.69,0,*6F
1494198221.92,1265,15.56,72830.8,-3.17,-4.69,-4.73,0,*6E
1494198223.16,1266,15.56,72830.0,-3.13,-4.65,-4.77,0,*61
1494198224.42,1267,15.56,72834.0,-3.17,-4.69,-4.85,0,*65
1494198225.68,1268,15.5,72826.3,-3.17,-4.69,-4.89,0,*66
1494198226.89,1269,15.56,72830.5,-3.17,-4.61,-4.99,0,*6E
1494198228.16,1270,15.56,72830.3,-3.17,-4.69,-5.03,0,*6C
1494198229.42,1271,15.5,72828.3,-3.17,-4.69,-5.11,0,*6E
1494198230.69,1272,15.5,72828.3,-3.17,-4.73,-5.27,0,*63
1494198231.96,1273,15.5,72828.5,-3.17,-4.73,-5.23,0,*66
1494198233.22,1274,15.56,72830.0,-3.13,-4.77,-5.31,0,*62
1494198234.46,1275,15.5,72826.5,-3.17,-4.89,-5.51,0,*60
1494198235.69,1276,15.5,72830.3,-3.13,-4.85,-5.47,0,*6C
1494198236.93,1277,15.56,72830.3,-3.13,-4.99,-5.65,0,*60
1494198238.19,1278,15.5,72828.5,-3.13,-5.11,-5.85,0,*60
1494198239.43,1279,15.5,72830.3,-3.17,-5.15,-6.01,0,*6E
1494198240.69,1280,15.56,72828.5,-3.13,-5.19,-6.23,0,*60
1494198241.91,1281,15.5,72830.5,-3.17,-5.35,-6.55,0,*6A
1494198243.13,1282,15.5,72828.5,-3.13,-5.47,-6.81,0,*61
1494198244.35,1283,15.5,72830.5,-3.13,-5.47,-7.15,0,*6C
1494198245.61,1284,15.56,72830.5,-3.13,-5.61,-7.35,0,*6D
1494198246.88,1285,15.5,72828.3,-3.17,-5.89,-7.65,0,*6B
1494198248.12,1286,15.5,72828.8,-3.17,-6.01,-7.91,0,*60
1494198249.36,1287,15.5,72828.3,-3.17,-6.27,-8.17,0,*64
1494198250.57,1288,15.5,72828.5,-3.13,-6.47,-8.25,0,*68
1494198251.78,1289,15.56,72830.8,-3.17,-6.69,-8.45,0,*67
1494198253.0,1290,15.5,72826.0,-3.13,-6.77,-8.63,0,*60
1494198254.26,1291,15.5,72828.0,-3.17,-6.97,-8.81,0,*67
1494198255.48,1292,15.5,72826.8,-3.13,-7.19,-9.01,0,*6E
1494198256.69,1293,15.5,72826.3,-3.17,-7.49,-9.27,0,*6A
1494198257.96,1294,15.5,72828.0,-3.17,-7.73,-9.41,0,*64
1494198259.21,1295,15.5,72830.3,-3.17,-7.87,-9.37,0,*6F
1494198260.42,1296,15.5,72826.5,-3.17,-7.87,-9.23,0,*69
1494198261.63,1297,15.5,72828.5,-3.17,-7.87,-9.05,0,*6C
1494198262.87,1298,15.56,72830.3,-3.17,-7.99,-8.97,0,*66
1494198264.09,1299,15.5,72830.5,-3.19,-7.91,-8.85,0,*62
1494198265.34,1300,15.5,72828.0,-3.17,-7.65,-8.85,0,*66
1494198266.58,1301,15.5,72828.0,-3.17,-7.73,-8.97,0,*63
1494198267.82,1302,15.5,72826.0,-3.17,-7.73,-8.97,0,*60
1494198269.1,1303,15.56,72830.8,-3.17,-7.73,-9.11,0,*6E
1494198270.33,1304,15.5,72828.5,-3.17,-7.91,-9.27,0,*60
1494198271.58,1305,15.5,72828.3,-3.17,-8.11,-9.75,0,*61
1494198272.8,1306,15.56,72828.0,-3.17,-8.41,-10.05,0,*58
1494198274.0,1307,15.5,72826.0,-3.19,-8.55,-10.09,0,*5E
1494198275.2,1308,15.5,72826.3,-3.19,-8.59,-10.09,0,*5D
1494198276.4,1309,15.5,72826.8,-3.19,-8.59,-10.23,0,*54
1494198277.6,1310,15.56,72828.0,-3.19,-8.67,-10.35,0,*56
1494198278.82,1311,15.5,72824.5,-3.19,-8.81,-10.45,0,*58
1494198280.03,1312,15.56,72826.3,-3.19,-8.89,-10.49,0,*5F
1494198281.24,1313,15.5,72826.3,-3.19,-8.85,-10.35,0,*59
1494198282.47,1314,15.5,72826.5,-3.21,-8.75,-10.27,0,*59
1494198283.73,1315,15.5,72826.3,-3.21,-8.85,-10.41,0,*57
1494198284.97,1316,15.5,72826.3,-3.21,-8.89,-10.35,0,*5B
1494198286.21,1317,15.5,72824.0,-3.21,-8.85,-10.27,0,*55
1494198287.43,1318,15.5,72822.0,-3.21,-8.75,-10.09,0,*59
1494198288.67,1319,15.56,72828.3,-3.21,-8.71,-10.01,0,*54
1494198289.9,1320,15.56,72830.0,-3.21,-8.89,-10.23,0,*59
1494198291.16,1321,15.5,72824.8,-3.21,-8.89,-10.41,0,*5C
1494198292.42,1322,15.5,72826.5,-3.21,-8.97,-10.41,0,*50
1494198293.66,1323,15.5,72824.3,-3.21,-9.01,-10.35,0,*5C
1494198294.9,1324,15.5,72824.5,-3.21,-9.01,-10.27,0,*58
1494198296.16,1325,15.5,72826.5,-3.21,-9.01,-10.41,0,*59
1494198297.42,1326,15.5,72826.5,-3.21,-9.15,-10.35,0,*5C
1494198298.69,1327,15.5,72826.8,-3.21,-9.15,-10.35,0,*5D
1494198299.95,1328,15.5,72824.3,-3.21,-9.15,-10.15,0,*50
1494198301.18,1329,15.5,72826.3,-3.23,-9.15,-10.09,0,*5E
1494198302.4,1330,15.5,72826.0,-3.25,-9.23,-10.05,0,*59
1494198303.62,1331,15.5,72826.5,-3.25,-9.31,-9.89,0,*67
1494198304.84,1332,15.5,72824.0,-3.25,-9.23,-9.71,0,*60
1494198306.06,1333,15.5,72826.8,-3.23,-9.15,-9.67,0,*65
1494198307.31,1334,15.5,72828.3,-3.23,-9.15,-9.57,0,*61
1494198308.55,1335,15.56,72830.8,-3.23,-9.11,-9.45,0,*67
1494198309.8,1336,15.5,72826.0,-3.25,-9.19,-9.37,0,*6F
1494198311.02,1337,15.5,72826.5,-3.23,-9.15,-9.27,0,*65
1494198312.26,1338,15.56,72830.8,-3.23,-9.11,-9.15,0,*6F
1494198313.46,1339,15.5,72824.0,-3.23,-9.01,-9.01,0,*6A
1494198314.69,1340,15.5,72830.3,-3.25,-9.01,-8.89,0,*63
1494198315.88,1341,15.5,72824.5,-3.23,-8.89,-8.75,0,*66
1494198317.12,1342,15.5,72824.8,-3.25,-8.89,-8.81,0,*68
1494198318.33,1343,15.5,72824.3,-3.25,-8.89,-8.67,0,*61
1494198319.55,1344,15.5,72826.5,-3.23,-8.71,-8.51,0,*62
1494198320.77,1345,15.56,72828.8,-3.23,-8.71,-8.51,0,*63
1494198321.98,1346,15.5,72828.3,-3.25,-8.75,-8.55,0,*66
1494198323.2,1347,15.5,72826.0,-3.23,-8.71,-8.51,0,*61
1494198324.39,1348,15.5,72826.0,-3.23,-8.71,-8.37,0,*6E
1494198325.61,1349,15.5,72824.3,-3.25,-8.63,-8.41,0,*6B
1494198326.83,1350,15.5,72824.0,-3.25,-8.67,-8.37,0,*66
1494198328.01,1351,15.5,72830.8,-3.23,-8.63,-8.33,0,*61
1494198329.2,1352,15.5,72830.8,-3.23,-8.63,-8.25,0,*65
1494198330.42,1353,15.5,72828.5,-3.23,-8.51,-8.17,0,*64
1494198331.64,1354,15.5,72832.0,-3.23,-8.45,-8.07,0,*67
1494198332.89,1355,15.5,72830.0,-3.25,-8.41,-8.07,0,*64
1494198334.13,1356,15.5,72830.5,-3.25,-8.37,-7.99,0,*6E
1494198335.35,1357,15.5,72832.0,-3.25,-8.29,-7.87,0,*6F
1494198336.62,1358,15.5,72830.8,-3.25,-8.11,-7.73,0,*60
1494198337.88,1359,15.5,72826.8,-3.25,-7.99,-7.69,0,*65
1494198339.12,1360,15.5,72826.5,-3.23,-7.95,-7.57,0,*68
1494198340.34,1361,15.5,72828.3,-3.23,-7.83,-7.43,0,*6B
1494198341.55,1362,15.5,72826.8,-3.23,-7.83,-7.39,0,*65
1494198342.8,1363,15.5,72824.3,-3.25,-7.87,-7.43,0,*6B
1494198344.04,1364,15.5,72826.0,-3.23,-7.77,-7.35,0,*64
1494198345.28,1365,15.5,72824.3,-3.23,-7.65,-7.27,0,*65
1494198346.5,1366,15.5,72824.5,-3.23,-7.43,-7.11,0,*67
1494198347.73,1367,15.5,72826.5,-3.23,-7.43,-6.97,0,*69
1494198348.94,1368,15.5,72826.5,-3.23,-7.39,-6.89,0,*64
1494198350.19,1369,15.5,72826.3,-3.25,-7.31,-6.81,0,*63
1494198351.4,1370,15.5,72824.3,-3.21,-7.23,-6.77,0,*65
1494198352.62,1371,15.5,72824.8,-3.23,-7.15,-6.63,0,*66
1494198353.84,1372,15.5,72826.5,-3.25,-7.19,-6.69,0,*65
1494198355.05,1373,15.5,72822.5,-3.23,-7.01,-6.47,0,*67
1494198356.27,1374,15.5,72822.0,-3.23,-7.01,-6.35,0,*65
1494198357.46,1375,15.5,72822.3,-3.23,-6.89,-6.35,0,*65
1494198358.68,1376,15.5,72822.5,-3.25,-6.89,-6.35,0,*60
1494198359.9,1377,15.5,72826.5,-3.23,-6.93,-6.31,0,*68
1494198361.12,1378,15.5,72824.0,-3.23,-6.77,-6.19,0,*67
1494198362.36,1379,15.5,72826.5,-3.25,-6.77,-6.27,0,*6D
1494198363.55,1380,15.5,72824.0,-3.23,-6.59,-6.31,0,*66
1494198364.79,1381,15.56,72826.3,-3.25,-6.51,-6.23,0,*6A
1494198366.02,1382,15.56,72828.3,-3.23,-6.35,-6.19,0,*64
1494198367.23,1383,15.5,72824.3,-3.23,-6.35,-6.23,0,*6C
1494198368.43,1384,15.5,72824.3,-3.23,-6.35,-6.31,0,*68
1494198369.64,1385,15.5,72824.8,-3.25,-6.39,-6.35,0,*67
1494198370.83,1386,15.5,72820.5,-3.23,-6.43,-6.35,0,*6F
1494198372.03,1387,15.5,72826.5,-3.23,-6.35,-6.35,0,*6F
1494198373.21,1388,15.56,72828.8,-3.23,-6.39,-6.39,0,*60
1494198374.4,1389,15.5,72824.5,-3.23,-6.39,-6.47,0,*68
1494198375.62,1390,15.56,72830.3,-3.25,-6.39,-6.35,0,*63
1494198376.81,1391,15.5,72824.3,-3.23,-6.35,-6.43,0,*69
1494198378.03,1392,15.56,72830.5,-3.25,-6.47,-6.39,0,*64
1494198379.22,1393,15.5,72828.3,-3.23,-6.43,-6.43,0,*6A
1494198380.41,1394,15.5,72824.0,-3.23,-6.43,-6.35,0,*6C
1494198381.6,1395,15.5,72824.8,-3.23,-6.43,-6.43,0,*6C
1494198382.79,1396,15.5,72826.0,-3.23,-6.55,-6.35,0,*69
1494198384.01,1397,15.5,72824.8,-3.21,-6.47,-6.35,0,*69
1494198385.21,1398,15.5,72828.3,-3.19,-6.51,-6.31,0,*6E
1494198386.44,1399,15.5,72826.5,-3.21,-6.59,-6.31,0,*6C
1494198387.66,1400,15.5,72828.3,-3.21,-6.55,-6.31,0,*67
1494198388.92,1401,15.5,72828.3,-3.21,-6.63,-6.23,0,*60
1494198390.16,1402,15.5,72828.0,-3.21,-6.47,-6.23,0,*65
1494198391.37,1403,15.56,72828.5,-3.21,-6.47,-6.09,0,*6C
1494198392.59,1404,15.56,72828.3,-3.21,-6.47,-6.09,0,*6B
1494198393.8,1405,15.5,72830.0,-3.21,-6.47,-6.05,0,*66
1494198395.02,1406,15.5,72828.8,-3.21,-6.55,-6.05,0,*66
1494198396.23,1407,15.5,72830.5,-3.21,-6.47,-5.97,0,*6C
1494198397.45,1408,15.5,72828.3,-3.21,-6.55,-6.05,0,*68
1494198398.66,1409,15.5,72828.5,-3.19,-6.39,-5.93,0,*64
1494198399.85,1410,15.5,72828.0,-3.19,-6.39,-6.01,0,*64
1494198401.07,1411,15.5,72828.0,-3.19,-6.31,-5.93,0,*65
1494198402.29,1412,15.5,72828.0,-3.19,-6.31,-5.93,0,*66
1494198403.51,1413,15.5,72830.3,-3.19,-6.31,-5.93,0,*67
1494198404.78,1414,15.5,72830.3,-3.21,-6.23,-5.85,0,*6F
1494198406.0,1415,15.5,72828.8,-3.19,-6.05,-5.89,0,*6D
1494198407.22,1416,15.5,72828.5,-3.19,-6.05,-5.81,0,*66
1494198408.46,1417,15.5,72830.3,-3.19,-5.93,-5.81,0,*6B
1494198409.71,1418,15.56,72832.3,-3.19,-5.93,-5.89,0,*6C
1494198410.96,1419,15.5,72830.0,-3.19,-5.81,-5.89,0,*6E
1494198412.21,1420,15.5,72828.0,-3.19,-5.89,-5.81,0,*64
1494198413.45,1421,15.5,72828.8,-3.19,-5.89,-5.93,0,*66
1494198414.66,1422,15.5,72828.8,-3.19,-5.81,-6.01,0,*65
1494198415.88,1423,15.56,72832.5,-3.19,-5.81,-6.01,0,*64
1494198417.13,1424,15.5,72828.0,-3.19,-5.81,-6.19,0,*6A
1494198418.4,1425,15.5,72830.3,-3.17,-5.81,-6.19,0,*65
1494198419.66,1426,15.5,72828.5,-3.17,-5.89,-6.27,0,*63
1494198420.91,1427,15.5,72830.8,-3.17,-5.81,-6.59,0,*63
1494198422.15,1428,15.5,72830.8,-3.13,-5.85,-6.77,0,*60
1494198423.41,1429,15.5,72830.5,-3.17,-5.81,-7.05,0,*65
1494198424.66,1430,15.5,72830.5,-3.17,-5.81,-7.19,0,*60
1494198425.93,1431,15.5,72828.8,-3.17,-5.93,-7.39,0,*60
1494198427.2,1432,15.5,72828.0,-3.17,-5.93,-7.65,0,*6A
1494198428.47,1433,15.5,72828.0,-3.17,-5.93,-7.91,0,*60
1494198429.71,1434,15.5,72828.5,-3.17,-6.01,-8.03,0,*6B
1494198430.9,1435,15.5,72828.8,-3.19,-6.13,-8.17,0,*62
1494198432.14,1436,15.5,72830.5,-3.17,-6.19,-8.41,0,*66
1494198433.37,1437,15.5,72824.8,-3.17,-6.27,-8.55,0,*6F
1494198434.6,1438,15.5,72828.3,-3.17,-6.27,-8.67,0,*61
1494198435.8,1439,15.5,72828.0,-3.19,-6.27,-8.67,0,*6E
1494198437.04,1440,15.5,72830.3,-3.17,-6.27,-8.85,0,*62
1494198438.28,1441,15.5,72828.0,-3.17,-6.27,-8.97,0,*60
1494198439.52,1442,15.5,72830.5,-3.17,-6.39,-9.11,0,*63
1494198440.73,1443,15.5,72830.3,-3.21,-6.43,-9.19,0,*62
1494198441.93,1444,15.5,72830.5,-3.19,-6.51,-9.27,0,*60
1494198443.15,1445,15.5,72830.8,-3.19,-6.55,-9.41,0,*65
1494198444.37,1446,15.5,72828.8,-3.19,-6.59,-9.53,0,*69
1494198445.56,1447,15.5,72828.3,-3.19,-6.69,-9.67,0,*6C
1494198446.76,1448,15.5,72830.0,-3.19,-6.81,-9.79,0,*6A
1494198448.01,1449,15.5,72828.5,-3.21,-6.97,-10.01,0,*50
1494198449.22,1450,15.5,72834.0,-3.19,-7.11,-10.09,0,*54
1494198450.42,1451,15.5,72828.3,-3.19,-7.11,-10.23,0,*5D
1494198451.63,1452,15.5,72830.5,-3.19,-7.19,-10.19,0,*5F
1494198452.85,1453,15.5,72832.0,-3.19,-7.39,-10.19,0,*5C
1494198454.07,1454,15.5,72828.5,-3.19,-7.39,-10.23,0,*52
1494198455.3,1455,15.5,72828.5,-3.19,-7.61,-10.35,0,*59
1494198456.54,1456,15.5,72828.3,-3.19,-7.73,-10.35,0,*59
1494198457.81,1457,15.5,72830.5,-3.21,-7.91,-10.41,0,*5C
1494198459.04,1458,15.5,72830.3,-3.19,-7.99,-10.49,0,*58
1494198460.31,1459,15.5,72834.3,-3.21,-8.03,-10.63,0,*56
1494198461.56,1460,15.5,72830.5,-3.21,-8.07,-10.53,0,*5B
1494198462.81,1461,15.5,72828.3,-3.21,-8.03,-10.53,0,*5E
1494198464.05,1462,15.5,72832.3,-3.21,-8.03,-10.53,0,*5D
1494198465.3,1463,15.5,72830.8,-3.21,-7.99,-10.57,0,*54
1494198466.56,1464,15.5,72828.3,-3.21,-8.07,-10.49,0,*54
1494198467.81,1465,15.5,72830.5,-3.21,-8.07,-10.49,0,*55
1494198469.04,1466,15.5,72832.0,-3.21,-8.17,-10.49,0,*57
1494198470.26,1467,15.5,72830.0,-3.21,-8.21,-10.53,0,*58
1494198471.52,1468,15.5,72830.3,-3.21,-8.21,-10.63,0,*54
1494198472.77,1469,15.5,72828.3,-3.21,-8.25,-10.63,0,*51
1494198474.02,1470,15.5,72828.8,-3.21,-8.25,-10.63,0,*59
1494198475.24,1471,15.5,72828.3,-3.23,-8.33,-10.63,0,*5D
1494198476.46,1472,15.5,72830.8,-3.23,-8.33,-10.67,0,*5A
1494198477.69,1473,15.5,72830.3,-3.23,-8.45,-10.63,0,*5E
1494198478.94,1474,15.5,72830.5,-3.23,-8.51,-10.75,0,*5B
1494198480.19,1475,15.5,72832.0,-3.23,-8.51,-10.75,0,*5A
1494198481.42,1476,15.5,72828.8,-3.23,-8.45,-10.67,0,*5F
1494198482.67,1477,15.5,72830.5,-3.25,-8.55,-10.71,0,*5E
1494198483.92,1478,15.5,72830.3,-3.23,-8.51,-10.67,0,*54
1494198485.17,1479,15.5,72832.5,-3.25,-8.63,-10.71,0,*55
1494198486.4,1480,15.5,72828.8,-3.23,-8.63,-10.67,0,*52
1494198487.65,1481,15.5,72828.5,-3.25,-8.67,-10.79,0,*5E
1494198488.9,1482,15.5,72824.5,-3.23,-8.51,-10.67,0,*51
1494198490.15,1483,15.5,72828.5,-3.25,-8.67,-10.67,0,*53
1494198491.41,1484,15.5,72826.3,-3.25,-8.63,-10.67,0,*50
1494198492.64,1485,15.5,72830.3,-3.23,-8.63,-10.67,0,*57
1494198493.86,1486,15.5,72828.3,-3.25,-8.75,-10.85,0,*59
1494198495.1,1487,15.5,72828.5,-3.25,-8.81,-10.93,0,*54
1494198496.35,1488,15.5,72830.3,-3.25,-8.81,-10.93,0,*5B
1494198497.57,1489,15.5,72828.5,-3.25,-9.05,-10.93,0,*57
1494198498.8,1490,15.5,72828.5,-3.25,-9.05,-10.97,0,*5B
1494198500.03,1491,15.5,72830.5,-3.27,-9.11,-10.97,0,*5D
1494198501.23,1492,15.5,72828.0,-3.27,-9.19,-11.01,0,*58
1494198502.43,1493,15.5,72830.3,-3.27,-9.23,-10.97,0,*5E
1494198503.66,1494,15.5,72826.8,-3.27,-9.37,-11.01,0,*52
1494198504.88,1495,15.5,72826.5,-3.27,-9.49,-11.01,0,*5A
1494198506.09,1496,15.5,72826.8,-3.27,-9.53,-11.01,0,*52
1494198507.34,1497,15.5,72828.0,-3.29,-9.61,-11.01,0,*5C
1494198508.56,1498,15.5,72828.8,-3.27,-9.61,-10.97,0,*53
1494198509.8,1499,15.5,72828.5,-3.29,-9.61,-10.89,0,*53
1494198511.04,1500,15.5,72830.3,-3.29,-9.61,-10.97,0,*5D
1494198512.24,1501,15.5,72830.0,-3.27,-9.67,-11.01,0,*5A
1494198513.43,1502,15.5,72828.8,-3.27,-9.75,-11.15,0,*5F
1494198514.64,1503,15.5,72826.8,-3.29,-9.89,-11.01,0,*56
1494198515.89,1504,15.5,72830.8,-3.29,-9.93,-11.07,0,*5C
1494198517.14,1505,15.5,72830.0,-3.29,-10.01,-11.07,0,*6E
1494198518.33,1506,15.5,72830.8,-3.27,-10.09,-11.15,0,*68
1494198519.55,1507,15.5,72830.3,-3.29,-10.09,-11.15,0,*67